,,PA_Meas_PMT16A,,PR_Meas_QMR101_102,,RH_Meas_QMH101,,SR_Meas_QMS101,,TA_Meas_QMH101,,GenWind,,GenWind,
time,status,PA,status,PR,status,RH,status,SR,status,TA,status,DirAvg,status,SpdAvg,
2011-09-24, 00:00:05,VALID,918.476,VALID,0,VALID,95.8568,VALID,0,VALID,20.3269,VALID,5,VALID,0,
2011-09-24, 00:01:05,VALID,918.437,VALID,0,VALID,95.895,VALID,0,VALID,20.3253,VALID,5,VALID,0.0285156,
2011-09-24, 00:02:05,VALID,918.466,VALID,0,VALID,95.8873,VALID,0,VALID,20.3253,VALID,5,VALID,0,
2011-09-24, 00:03:05,VALID,918.453,VALID,0,VALID,95.9483,VALID,0,VALID,20.3448,VALID,5,VALID,0.0710938,
2011-09-24, 00:04:05,VALID,918.467,VALID,0,VALID,95.9331,VALID,0,VALID,20.3464,VALID,5,VALID,0.171875,
2011-09-24, 00:05:05,VALID,918.428,VALID,0,VALID,95.8797,VALID,0,VALID,20.3464,VALID,5,VALID,0.218359,
2011-09-24, 00:06:05,VALID,918.414,VALID,0,VALID,95.8568,VALID,0,VALID,20.3058,VALID,5,VALID,0.444141,
2011-09-24, 00:07:05,VALID,918.395,VALID,0,VALID,95.834,VALID,0.107441,VALID,20.3269,VALID,5,VALID,0.463281,
2011-09-24, 00:08:05,VALID,918.391,VALID,0,VALID,95.7958,VALID,0,VALID,20.3074,VALID,5,VALID,0.664063,
2011-09-24, 00:09:05,VALID,918.378,VALID,0,VALID,95.7577,VALID,0.107441,VALID,20.2473,VALID,5,VALID,0.851953,
2011-09-24, 00:10:05,VALID,918.37,VALID,0,VALID,95.773,VALID,0,VALID,20.2278,VALID,5,VALID,0.903906,
2011-09-24, 00:11:05,VALID,918.354,VALID,0,VALID,95.8568,VALID,0,VALID,20.2083,VALID,5,VALID,0.606641,
2011-09-24, 00:12:05,VALID,918.338,VALID,0,VALID,95.9254,VALID,0,VALID,20.2293,VALID,5,VALID,0.646094,
2011-09-24, 00:13:05,VALID,918.331,VALID,0,VALID,95.9788,VALID,0,VALID,20.2098,VALID,5,VALID,0.164453,
2011-09-24, 00:14:05,VALID,918.331,VALID,0,VALID,95.9636,VALID,0,VALID,20.1498,VALID,6,VALID,0.282422,
2011-09-24, 00:15:05,VALID,918.301,VALID,0,VALID,96.0474,VALID,0,VALID,20.1318,VALID,5,VALID,0.235156,
2011-09-24, 00:16:05,VALID,918.26,VALID,0,VALID,96.0703,VALID,0,VALID,20.1123,VALID,5,VALID,0,
2011-09-24, 00:17:05,VALID,918.27,VALID,0,VALID,96.1465,VALID,0,VALID,20.1123,VALID,5,VALID,0.515625,
2011-09-24, 00:18:05,VALID,918.238,VALID,0,VALID,96.2533,VALID,0,VALID,20.0913,VALID,6,VALID,0.288281,
2011-09-24, 00:19:05,VALID,918.265,VALID,0,VALID,96.3142,VALID,0,VALID,20.1123,VALID,5,VALID,0.528516,
2011-09-24, 00:20:05,VALID,918.246,VALID,0,VALID,96.3905,VALID,0,VALID,20.1318,VALID,5,VALID,0.476953,
2011-09-24, 00:21:05,VALID,918.262,VALID,0,VALID,96.4286,VALID,0,VALID,20.1513,VALID,5,VALID,0.480859,
2011-09-24, 00:22:05,VALID,918.239,VALID,0,VALID,96.4515,VALID,0,VALID,20.1318,VALID,5,VALID,0.392578,
2011-09-24, 00:23:05,VALID,918.216,VALID,0,VALID,96.5048,VALID,0,VALID,20.1513,VALID,5,VALID,0.207813,
2011-09-24, 00:24:05,VALID,918.222,VALID,0,VALID,96.5201,VALID,0,VALID,20.1708,VALID,5,VALID,0,
2011-09-24, 00:25:05,VALID,918.223,VALID,0,VALID,96.5353,VALID,0,VALID,20.1513,VALID,5,VALID,0,
2011-09-24, 00:26:05,VALID,918.201,VALID,0,VALID,96.4438,VALID,0,VALID,20.0733,VALID,5,VALID,0.303516,
2011-09-24, 00:27:05,VALID,918.172,VALID,0,VALID,96.4515,VALID,0,VALID,19.9938,VALID,5,VALID,0.517187,
2011-09-24, 00:28:05,VALID,918.188,VALID,0,VALID,96.5124,VALID,0,VALID,19.9953,VALID,5,VALID,0.724609,
2011-09-24, 00:29:05,VALID,918.157,VALID,0,VALID,96.5124,VALID,0,VALID,19.9563,VALID,6,VALID,0.942969,
2011-09-24, 00:30:05,VALID,918.177,VALID,0,VALID,96.5811,VALID,0,VALID,19.9563,VALID,91,VALID,0.755469,
2011-09-24, 00:31:05,VALID,918.156,VALID,0,VALID,96.5658,VALID,0,VALID,19.8963,VALID,91,VALID,0.751953,
2011-09-24, 00:32:05,VALID,918.128,VALID,0,VALID,96.6344,VALID,0,VALID,19.8978,VALID,106,VALID,0.600391,
2011-09-24, 00:33:05,VALID,918.105,VALID,0,VALID,96.642,VALID,0,VALID,19.8783,VALID,105,VALID,0.144141,
2011-09-24, 00:34:05,VALID,918.122,VALID,0,VALID,96.6802,VALID,0.107441,VALID,19.8783,VALID,106,VALID,0.653516,
2011-09-24, 00:35:05,VALID,918.112,VALID,0,VALID,96.7183,VALID,0,VALID,19.8588,VALID,105,VALID,0.4375,
2011-09-24, 00:36:05,VALID,918.096,VALID,0,VALID,96.7869,VALID,0,VALID,19.8573,VALID,105,VALID,0.272656,
2011-09-24, 00:37:05,VALID,918.106,VALID,0,VALID,96.7945,VALID,0,VALID,19.8783,VALID,105,VALID,0.046875,
2011-09-24, 00:38:05,VALID,918.101,VALID,0,VALID,96.825,VALID,0,VALID,19.8783,VALID,105,VALID,0.10625,
2011-09-24, 00:39:05,VALID,918.097,VALID,0,VALID,96.8326,VALID,0,VALID,19.8588,VALID,105,VALID,0,
2011-09-24, 00:40:05,VALID,918.076,VALID,0,VALID,96.8555,VALID,0,VALID,19.8588,VALID,105,VALID,0.105078,
2011-09-24, 00:41:05,VALID,918.067,VALID,0,VALID,96.825,VALID,0,VALID,19.8378,VALID,105,VALID,0.458203,
2011-09-24, 00:42:05,VALID,918.069,VALID,0,VALID,96.886,VALID,0,VALID,19.8783,VALID,105,VALID,0.566016,
2011-09-24, 00:43:05,VALID,918.072,VALID,0,VALID,96.9241,VALID,0,VALID,19.8783,VALID,105,VALID,0.644531,
2011-09-24, 00:44:05,VALID,918.067,VALID,0,VALID,96.9546,VALID,0,VALID,19.8768,VALID,105,VALID,0.605859,
2011-09-24, 00:45:05,VALID,918.086,VALID,0,VALID,96.9394,VALID,0,VALID,19.8978,VALID,105,VALID,0.685547,
2011-09-24, 00:46:05,VALID,918.103,VALID,0,VALID,96.9546,VALID,0,VALID,19.9158,VALID,105,VALID,0.757422,
2011-09-24, 00:47:05,VALID,918.058,VALID,0,VALID,96.9698,VALID,0,VALID,19.9368,VALID,105,VALID,0.742578,
2011-09-24, 00:48:05,VALID,918.073,VALID,0,VALID,96.9698,VALID,0.107441,VALID,19.9563,VALID,105,VALID,0.393359,
2011-09-24, 00:49:05,VALID,918.038,VALID,0,VALID,96.9927,VALID,0,VALID,19.9563,VALID,106,VALID,0.782422,
2011-09-24, 00:50:05,VALID,917.997,VALID,0,VALID,97.0156,VALID,0,VALID,19.9563,VALID,106,VALID,0.451953,
2011-09-24, 00:51:05,VALID,917.994,VALID,0,VALID,97.0003,VALID,0,VALID,19.9563,VALID,106,VALID,0.218359,
2011-09-24, 00:52:05,VALID,917.949,VALID,0,VALID,97.0232,VALID,0,VALID,19.9758,VALID,106,VALID,0.488672,
2011-09-24, 00:53:05,VALID,917.942,VALID,0,VALID,97.0232,VALID,0,VALID,19.9968,VALID,106,VALID,0.526172,
2011-09-24, 00:54:05,VALID,917.947,VALID,0,VALID,97.0613,VALID,0,VALID,19.9953,VALID,106,VALID,0.349609,
2011-09-24, 00:55:05,VALID,917.941,VALID,0,VALID,97.0613,VALID,0,VALID,19.9953,VALID,129,VALID,0.523828,
2011-09-24, 00:56:05,VALID,917.928,VALID,0,VALID,97.0461,VALID,0,VALID,20.0163,VALID,129,VALID,0.363281,
2011-09-24, 00:57:05,VALID,917.955,VALID,0,VALID,97.0613,VALID,0,VALID,20.0148,VALID,129,VALID,0.664063,
2011-09-24, 00:58:05,VALID,917.934,VALID,0,VALID,97.0918,VALID,0,VALID,19.9938,VALID,129,VALID,0.388672,
2011-09-24, 00:59:05,VALID,917.884,VALID,0,VALID,97.0842,VALID,0,VALID,20.0148,VALID,129,VALID,0.214062,
2011-09-24, 01:00:05,VALID,917.916,VALID,0,VALID,97.0918,VALID,0,VALID,20.0148,VALID,129,VALID,0.569531,
2011-09-24, 01:01:05,VALID,917.93,VALID,0,VALID,97.0918,VALID,0,VALID,19.9938,VALID,129,VALID,0.205078,
2011-09-24, 01:02:05,VALID,917.905,VALID,0,VALID,97.1147,VALID,0,VALID,20.0343,VALID,129,VALID,0.503516,
2011-09-24, 01:03:05,VALID,917.928,VALID,0,VALID,97.1223,VALID,0,VALID,20.0538,VALID,129,VALID,0.0121094,
2011-09-24, 01:04:05,VALID,917.921,VALID,0,VALID,97.1223,VALID,0,VALID,20.0538,VALID,129,VALID,0.0375,
2011-09-24, 01:05:05,VALID,917.934,VALID,0,VALID,97.1147,VALID,0,VALID,20.0343,VALID,129,VALID,0,
2011-09-24, 01:06:05,VALID,917.939,VALID,0,VALID,97.1299,VALID,0,VALID,19.9953,VALID,129,VALID,0.349609,
2011-09-24, 01:07:05,VALID,917.883,VALID,0,VALID,97.1147,VALID,0,VALID,19.9953,VALID,129,VALID,0.192578,
2011-09-24, 01:08:05,VALID,917.873,VALID,0,VALID,97.1376,VALID,0,VALID,20.0148,VALID,129,VALID,0,
2011-09-24, 01:09:05,VALID,917.855,VALID,0,VALID,97.1604,VALID,0,VALID,19.9953,VALID,129,VALID,0.330078,
2011-09-24, 01:10:05,VALID,917.819,VALID,0,VALID,97.1452,VALID,0,VALID,19.9953,VALID,129,VALID,0.523047,
2011-09-24, 01:11:05,VALID,917.814,VALID,0,VALID,97.1528,VALID,0,VALID,19.9758,VALID,129,VALID,0.191016,
2011-09-24, 01:12:05,VALID,917.79,VALID,0,VALID,97.1528,VALID,0,VALID,19.9758,VALID,129,VALID,0.228516,
2011-09-24, 01:13:05,VALID,917.759,VALID,0,VALID,97.1376,VALID,0,VALID,19.9563,VALID,129,VALID,0.440625,
2011-09-24, 01:14:05,VALID,917.7,VALID,0,VALID,97.1452,VALID,0,VALID,19.9173,VALID,129,VALID,0.443359,
2011-09-24, 01:15:05,VALID,917.687,VALID,0,VALID,97.1604,VALID,0,VALID,19.9173,VALID,129,VALID,0.388281,
2011-09-24, 01:16:05,VALID,917.69,VALID,0,VALID,97.1452,VALID,0,VALID,19.8783,VALID,129,VALID,0.4375,
2011-09-24, 01:17:05,VALID,917.682,VALID,0,VALID,97.1604,VALID,0,VALID,19.8378,VALID,129,VALID,0.542578,
2011-09-24, 01:18:05,VALID,917.646,VALID,0,VALID,97.1604,VALID,0,VALID,19.7988,VALID,129,VALID,0.554688,
2011-09-24, 01:19:05,VALID,917.629,VALID,0,VALID,97.1528,VALID,0,VALID,19.7598,VALID,129,VALID,0.547266,
2011-09-24, 01:20:05,VALID,917.64,VALID,0,VALID,97.1528,VALID,0,VALID,19.7418,VALID,129,VALID,0.407031,
2011-09-24, 01:21:05,VALID,917.624,VALID,0,VALID,97.1681,VALID,0,VALID,19.7223,VALID,129,VALID,0.612891,
2011-09-24, 01:22:05,VALID,917.648,VALID,0,VALID,97.1757,VALID,0,VALID,19.7223,VALID,129,VALID,0.598828,
2011-09-24, 01:23:05,VALID,917.63,VALID,0,VALID,97.1909,VALID,0,VALID,19.7028,VALID,129,VALID,0.308984,
2011-09-24, 01:24:05,VALID,917.62,VALID,0,VALID,97.1986,VALID,0,VALID,19.7028,VALID,129,VALID,0.607031,
2011-09-24, 01:25:05,VALID,917.598,VALID,0,VALID,97.1986,VALID,0,VALID,19.7043,VALID,129,VALID,0.500391,
2011-09-24, 01:26:05,VALID,917.581,VALID,0,VALID,97.2062,VALID,0,VALID,19.6638,VALID,129,VALID,0.528906,
2011-09-24, 01:27:05,VALID,917.596,VALID,0,VALID,97.2138,VALID,0,VALID,19.6443,VALID,129,VALID,0.553516,
2011-09-24, 01:28:05,VALID,917.583,VALID,0,VALID,97.2062,VALID,0,VALID,19.6248,VALID,129,VALID,0.753516,
2011-09-24, 01:29:05,VALID,917.538,VALID,0,VALID,97.2138,VALID,0,VALID,19.6053,VALID,129,VALID,0.641016,
2011-09-24, 01:30:05,VALID,917.534,VALID,0,VALID,97.229,VALID,0,VALID,19.6053,VALID,129,VALID,0.758203,
2011-09-24, 01:31:05,VALID,917.521,VALID,0,VALID,97.2367,VALID,0,VALID,19.5858,VALID,129,VALID,0.892969,
2011-09-24, 01:32:05,VALID,917.513,VALID,0,VALID,97.229,VALID,0,VALID,19.5663,VALID,118,VALID,0.75,
2011-09-24, 01:33:05,VALID,917.469,VALID,0,VALID,97.2367,VALID,0,VALID,19.5663,VALID,103,VALID,1.1043,
2011-09-24, 01:34:05,VALID,917.477,VALID,0,VALID,97.2595,VALID,0,VALID,19.5663,VALID,102,VALID,0.910937,
2011-09-24, 01:35:05,VALID,917.487,VALID,0,VALID,97.2748,VALID,0,VALID,19.5663,VALID,102,VALID,0.892969,
2011-09-24, 01:36:05,VALID,917.473,VALID,0,VALID,97.29,VALID,0,VALID,19.5888,VALID,102,VALID,0.65,
2011-09-24, 01:37:05,VALID,917.438,VALID,0,VALID,97.2824,VALID,0,VALID,19.5678,VALID,102,VALID,0.782422,
2011-09-24, 01:38:05,VALID,917.428,VALID,0,VALID,97.2748,VALID,0,VALID,19.5708,VALID,102,VALID,0.828516,
2011-09-24, 01:39:05,VALID,917.443,VALID,0,VALID,97.3053,VALID,0,VALID,19.5483,VALID,102,VALID,0.398047,
2011-09-24, 01:40:05,VALID,917.423,VALID,0,VALID,97.2824,VALID,0,VALID,19.5483,VALID,102,VALID,0.683984,
2011-09-24, 01:41:05,VALID,917.419,VALID,0,VALID,97.29,VALID,0,VALID,19.5708,VALID,102,VALID,0.370313,
2011-09-24, 01:42:05,VALID,917.408,VALID,0,VALID,97.3053,VALID,0,VALID,19.5078,VALID,102,VALID,0.664063,
2011-09-24, 01:43:05,VALID,917.4,VALID,0,VALID,97.3129,VALID,0,VALID,19.5078,VALID,102,VALID,0.678516,
2011-09-24, 01:44:05,VALID,917.39,VALID,0,VALID,97.3358,VALID,0,VALID,19.5078,VALID,102,VALID,0.576953,
2011-09-24, 01:45:05,VALID,917.386,VALID,0,VALID,97.3358,VALID,0,VALID,19.4853,VALID,102,VALID,0.355469,
2011-09-24, 01:46:05,VALID,917.342,VALID,0,VALID,97.3434,VALID,0,VALID,19.5663,VALID,104,VALID,0.680469,
2011-09-24, 01:47:05,VALID,917.342,VALID,0,VALID,97.3663,VALID,0,VALID,19.5438,VALID,140,VALID,0.914453,
2011-09-24, 01:48:05,VALID,917.34,VALID,0,VALID,97.3586,VALID,0,VALID,19.5648,VALID,155,VALID,0.608984,
2011-09-24, 01:49:05,VALID,917.314,VALID,0,VALID,97.3663,VALID,0,VALID,19.6683,VALID,155,VALID,0.668359,
2011-09-24, 01:50:05,VALID,917.317,VALID,0,VALID,97.3739,VALID,0,VALID,19.6248,VALID,153,VALID,0.687109,
2011-09-24, 01:51:05,VALID,917.285,VALID,0,VALID,97.3739,VALID,0,VALID,19.5843,VALID,152,VALID,0.526563,
2011-09-24, 01:52:05,VALID,917.287,VALID,0,VALID,97.3663,VALID,0,VALID,19.5858,VALID,152,VALID,0.497266,
2011-09-24, 01:53:05,VALID,917.244,VALID,0,VALID,97.3663,VALID,0,VALID,19.5858,VALID,147,VALID,0.939453,
2011-09-24, 01:54:05,VALID,917.243,VALID,0,VALID,97.3586,VALID,0,VALID,19.6053,VALID,147,VALID,0.557422,
2011-09-24, 01:55:05,VALID,917.271,VALID,0,VALID,97.3815,VALID,0,VALID,19.5858,VALID,147,VALID,0.162109,
2011-09-24, 01:56:05,VALID,917.257,VALID,0,VALID,97.3891,VALID,0,VALID,19.5468,VALID,147,VALID,0.589844,
2011-09-24, 01:57:05,VALID,917.271,VALID,0,VALID,97.3739,VALID,0,VALID,19.5273,VALID,147,VALID,0.697656,
2011-09-24, 01:58:05,VALID,917.247,VALID,0,VALID,97.3739,VALID,0,VALID,19.5078,VALID,147,VALID,0.8,
2011-09-24, 01:59:05,VALID,917.258,VALID,0,VALID,97.4044,VALID,0,VALID,19.5078,VALID,147,VALID,0.820703,
2011-09-24, 02:00:05,VALID,917.267,VALID,0,VALID,97.3891,VALID,0,VALID,19.4883,VALID,147,VALID,0.846094,
2011-09-24, 02:01:05,VALID,917.275,VALID,0,VALID,97.4044,VALID,0,VALID,19.4883,VALID,147,VALID,0.554297,
2011-09-24, 02:02:05,VALID,917.226,VALID,0,VALID,97.412,VALID,0,VALID,19.4658,VALID,147,VALID,0.242578,
2011-09-24, 02:03:05,VALID,917.249,VALID,0,VALID,97.4196,VALID,0,VALID,19.5093,VALID,147,VALID,0.446484,
2011-09-24, 02:04:05,VALID,917.276,VALID,0,VALID,97.412,VALID,0,VALID,19.4688,VALID,147,VALID,0.488281,
2011-09-24, 02:05:05,VALID,917.247,VALID,0,VALID,97.4044,VALID,0,VALID,19.4688,VALID,147,VALID,0.590625,
2011-09-24, 02:06:05,VALID,917.257,VALID,0,VALID,97.4044,VALID,0,VALID,19.4493,VALID,147,VALID,0.48125,
2011-09-24, 02:07:05,VALID,917.251,VALID,0,VALID,97.4044,VALID,0,VALID,19.4298,VALID,147,VALID,0.3625,
2011-09-24, 02:08:05,VALID,917.258,VALID,0,VALID,97.4196,VALID,0,VALID,19.4103,VALID,147,VALID,0.467187,
2011-09-24, 02:09:05,VALID,917.245,VALID,0,VALID,97.4273,VALID,0,VALID,19.4298,VALID,147,VALID,0.530859,
2011-09-24, 02:10:05,VALID,917.198,VALID,0,VALID,97.4349,VALID,0,VALID,19.4103,VALID,147,VALID,0.346484,
2011-09-24, 02:11:05,VALID,917.224,VALID,0,VALID,97.4425,VALID,0,VALID,19.4313,VALID,147,VALID,0,
2011-09-24, 02:12:05,VALID,917.19,VALID,0,VALID,97.4349,VALID,0,VALID,19.4508,VALID,147,VALID,0.0304688,
2011-09-24, 02:13:05,VALID,917.231,VALID,0,VALID,97.4501,VALID,0,VALID,19.4298,VALID,147,VALID,0.0359375,
2011-09-24, 02:14:05,VALID,917.213,VALID,0,VALID,97.4425,VALID,0,VALID,19.4298,VALID,147,VALID,0.212891,
2011-09-24, 02:15:05,VALID,917.228,VALID,0,VALID,97.473,VALID,0,VALID,19.4298,VALID,147,VALID,0.44375,
2011-09-24, 02:16:05,VALID,917.176,VALID,0,VALID,97.4349,VALID,0,VALID,19.3908,VALID,147,VALID,0.414844,
2011-09-24, 02:17:05,VALID,917.153,VALID,0,VALID,97.4349,VALID,0,VALID,19.3323,VALID,147,VALID,0.544531,
2011-09-24, 02:18:05,VALID,917.136,VALID,0,VALID,97.4501,VALID,0,VALID,19.3713,VALID,147,VALID,0.511719,
2011-09-24, 02:19:05,VALID,917.123,VALID,0,VALID,97.4349,VALID,0,VALID,19.4132,VALID,147,VALID,0.595312,
2011-09-24, 02:20:05,VALID,917.139,VALID,0,VALID,97.4654,VALID,0,VALID,19.4718,VALID,147,VALID,0.688672,
2011-09-24, 02:21:05,VALID,917.09,VALID,0,VALID,97.473,VALID,0,VALID,19.4942,VALID,147,VALID,0.617969,
2011-09-24, 02:22:05,VALID,917.099,VALID,0,VALID,97.4349,VALID,0,VALID,19.4313,VALID,147,VALID,0.641797,
2011-09-24, 02:23:05,VALID,917.122,VALID,0,VALID,97.473,VALID,0,VALID,19.4103,VALID,147,VALID,0.473437,
2011-09-24, 02:24:05,VALID,917.103,VALID,0,VALID,97.4654,VALID,0,VALID,19.3908,VALID,147,VALID,0.648047,
2011-09-24, 02:25:05,VALID,917.109,VALID,0,VALID,97.4654,VALID,0,VALID,19.4298,VALID,147,VALID,0.519531,
2011-09-24, 02:26:04,VALID,917.111,VALID,0,VALID,97.4654,VALID,0,VALID,19.4298,VALID,147,VALID,0.580469,
2011-09-24, 02:27:04,VALID,917.1,VALID,0,VALID,97.4577,VALID,0,VALID,19.4298,VALID,147,VALID,0.317578,
2011-09-24, 02:28:04,VALID,917.114,VALID,0,VALID,97.4577,VALID,0,VALID,19.4298,VALID,147,VALID,0.572656,
2011-09-24, 02:29:04,VALID,917.115,VALID,0,VALID,97.4501,VALID,0,VALID,19.4298,VALID,147,VALID,0.673047,
2011-09-24, 02:30:04,VALID,917.152,VALID,0,VALID,97.4654,VALID,0,VALID,19.4703,VALID,147,VALID,0.316797,
2011-09-24, 02:31:04,VALID,917.149,VALID,0,VALID,97.473,VALID,0,VALID,19.4688,VALID,147,VALID,0.382422,
2011-09-24, 02:32:04,VALID,917.174,VALID,0,VALID,97.4882,VALID,0,VALID,19.4673,VALID,147,VALID,0.569531,
2011-09-24, 02:33:04,VALID,917.179,VALID,0,VALID,97.4806,VALID,0,VALID,19.5078,VALID,147,VALID,0.28125,
2011-09-24, 02:34:04,VALID,917.181,VALID,0,VALID,97.4806,VALID,0,VALID,19.5288,VALID,147,VALID,0.573438,
2011-09-24, 02:35:04,VALID,917.168,VALID,0,VALID,97.4806,VALID,0,VALID,19.4868,VALID,147,VALID,0.542578,
2011-09-24, 02:36:04,VALID,917.143,VALID,0,VALID,97.4882,VALID,0,VALID,19.5078,VALID,147,VALID,0.573047,
2011-09-24, 02:37:04,VALID,917.154,VALID,0,VALID,97.4806,VALID,0,VALID,19.5093,VALID,147,VALID,0.794922,
2011-09-24, 02:38:04,VALID,917.155,VALID,0,VALID,97.4882,VALID,0,VALID,19.5078,VALID,147,VALID,0.74375,
2011-09-24, 02:39:04,VALID,917.163,VALID,0,VALID,97.4882,VALID,0,VALID,19.5273,VALID,147,VALID,0.50625,
2011-09-24, 02:40:04,VALID,917.156,VALID,0,VALID,97.4959,VALID,0,VALID,19.5063,VALID,147,VALID,0.601172,
2011-09-24, 02:41:04,VALID,917.153,VALID,0,VALID,97.4806,VALID,0.107441,VALID,19.5258,VALID,147,VALID,0.532812,
2011-09-24, 02:42:04,VALID,917.167,VALID,0,VALID,97.473,VALID,0,VALID,19.5258,VALID,147,VALID,0.297266,
2011-09-24, 02:43:04,VALID,917.18,VALID,0,VALID,97.4959,VALID,0,VALID,19.5063,VALID,147,VALID,0.526172,
2011-09-24, 02:44:04,VALID,917.172,VALID,0,VALID,97.4654,VALID,0.107441,VALID,19.5063,VALID,147,VALID,0.484375,
2011-09-24, 02:45:04,VALID,917.194,VALID,0,VALID,97.4654,VALID,0,VALID,19.5063,VALID,130,VALID,1.03398,
2011-09-24, 02:46:04,VALID,917.175,VALID,0,VALID,97.4501,VALID,0,VALID,19.5273,VALID,130,VALID,0.590625,
2011-09-24, 02:47:04,VALID,917.165,VALID,0,VALID,97.4577,VALID,0.107441,VALID,19.4853,VALID,130,VALID,0.970312,
2011-09-24, 02:48:04,VALID,917.168,VALID,0,VALID,97.4577,VALID,0.107441,VALID,19.5063,VALID,130,VALID,0.477734,
2011-09-24, 02:49:04,VALID,917.17,VALID,0,VALID,97.4501,VALID,0,VALID,19.5063,VALID,129,VALID,0.625,
2011-09-24, 02:50:04,VALID,917.14,VALID,0,VALID,97.4577,VALID,0,VALID,19.5063,VALID,129,VALID,0.787109,
2011-09-24, 02:51:04,VALID,917.137,VALID,0,VALID,97.4501,VALID,0.107441,VALID,19.5078,VALID,129,VALID,0.880859,
2011-09-24, 02:52:04,VALID,917.151,VALID,0,VALID,97.4577,VALID,0.107441,VALID,19.5063,VALID,129,VALID,0.442578,
2011-09-24, 02:53:04,VALID,917.141,VALID,0,VALID,97.4425,VALID,0,VALID,19.5273,VALID,129,VALID,0.558984,
2011-09-24, 02:54:04,VALID,917.119,VALID,0,VALID,97.4349,VALID,0,VALID,19.5063,VALID,129,VALID,0.339844,
2011-09-24, 02:55:04,VALID,917.117,VALID,0,VALID,97.4273,VALID,0,VALID,19.4868,VALID,129,VALID,0.524609,
2011-09-24, 02:56:04,VALID,917.104,VALID,0,VALID,97.4196,VALID,0,VALID,19.5078,VALID,129,VALID,0.548437,
2011-09-24, 02:57:04,VALID,917.112,VALID,0,VALID,97.4349,VALID,0,VALID,19.5483,VALID,129,VALID,0.791016,
2011-09-24, 02:58:04,VALID,917.112,VALID,0,VALID,97.4349,VALID,0,VALID,19.5483,VALID,129,VALID,0.698828,
2011-09-24, 02:59:04,VALID,917.131,VALID,0,VALID,97.4196,VALID,0,VALID,19.5273,VALID,129,VALID,0.817187,
2011-09-24, 03:00:04,VALID,917.101,VALID,0,VALID,97.4196,VALID,0,VALID,19.5273,VALID,129,VALID,0.516016,
2011-09-24, 03:01:04,VALID,917.093,VALID,0,VALID,97.4349,VALID,0,VALID,19.5063,VALID,129,VALID,0.551562,
2011-09-24, 03:02:04,VALID,917.113,VALID,0,VALID,97.4196,VALID,0,VALID,19.5468,VALID,129,VALID,0.457422,
2011-09-24, 03:03:04,VALID,917.075,VALID,0,VALID,97.4044,VALID,0,VALID,19.5078,VALID,129,VALID,0.638281,
2011-09-24, 03:04:04,VALID,917.067,VALID,0,VALID,97.3968,VALID,0,VALID,19.5078,VALID,129,VALID,0.709375,
2011-09-24, 03:05:04,VALID,917.059,VALID,0,VALID,97.3968,VALID,0,VALID,19.5078,VALID,129,VALID,0.327344,
2011-09-24, 03:06:04,VALID,917.043,VALID,0,VALID,97.3891,VALID,0,VALID,19.4883,VALID,129,VALID,0.519922,
2011-09-24, 03:07:04,VALID,917.013,VALID,0,VALID,97.3815,VALID,0,VALID,19.4898,VALID,129,VALID,0.315625,
2011-09-24, 03:08:04,VALID,917.055,VALID,0,VALID,97.3815,VALID,0,VALID,19.4883,VALID,129,VALID,0.699609,
2011-09-24, 03:09:04,VALID,917.046,VALID,0,VALID,97.3815,VALID,0,VALID,19.4898,VALID,129,VALID,0.667969,
2011-09-24, 03:10:04,VALID,917.007,VALID,0,VALID,97.3815,VALID,0,VALID,19.4688,VALID,129,VALID,0.786719,
2011-09-24, 03:11:04,VALID,917.003,VALID,0,VALID,97.3739,VALID,0,VALID,19.5093,VALID,129,VALID,0.680859,
2011-09-24, 03:12:04,VALID,916.998,VALID,0,VALID,97.3663,VALID,0,VALID,19.4883,VALID,129,VALID,0.800781,
2011-09-24, 03:13:04,VALID,917.014,VALID,0,VALID,97.3815,VALID,0,VALID,19.5078,VALID,129,VALID,0.512891,
2011-09-24, 03:14:04,VALID,916.986,VALID,0,VALID,97.3739,VALID,0,VALID,19.5273,VALID,129,VALID,0.90625,
2011-09-24, 03:15:04,VALID,917.008,VALID,0,VALID,97.3663,VALID,0,VALID,19.5468,VALID,129,VALID,0.641016,
2011-09-24, 03:16:04,VALID,917,VALID,0,VALID,97.3586,VALID,0,VALID,19.5468,VALID,129,VALID,0.303516,
2011-09-24, 03:17:04,VALID,917.003,VALID,0,VALID,97.3815,VALID,0,VALID,19.5873,VALID,129,VALID,0.252344,
2011-09-24, 03:18:04,VALID,917.013,VALID,0,VALID,97.3739,VALID,0,VALID,19.6053,VALID,129,VALID,0.925,
2011-09-24, 03:19:04,VALID,917.028,VALID,0,VALID,97.3739,VALID,0,VALID,19.6248,VALID,129,VALID,0.454297,
2011-09-24, 03:20:04,VALID,917.015,VALID,0,VALID,97.3739,VALID,0,VALID,19.6053,VALID,129,VALID,0.597656,
2011-09-24, 03:21:04,VALID,917.005,VALID,0,VALID,97.3586,VALID,0,VALID,19.5873,VALID,130,VALID,0.75,
2011-09-24, 03:22:04,VALID,917.007,VALID,0,VALID,97.3815,VALID,0,VALID,19.5843,VALID,129,VALID,0.355078,
2011-09-24, 03:23:04,VALID,917.044,VALID,0,VALID,97.3739,VALID,0,VALID,19.5648,VALID,152,VALID,1.16328,
2011-09-24, 03:24:04,VALID,917.038,VALID,0,VALID,97.3891,VALID,0,VALID,19.5828,VALID,163,VALID,0.739062,
2011-09-24, 03:25:04,VALID,917.055,VALID,0,VALID,97.3739,VALID,0,VALID,19.5858,VALID,163,VALID,0.749219,
2011-09-24, 03:26:04,VALID,917.067,VALID,0,VALID,97.3739,VALID,0,VALID,19.5648,VALID,163,VALID,0.894531,
2011-09-24, 03:27:04,VALID,917.106,VALID,0,VALID,97.351,VALID,0,VALID,19.5858,VALID,163,VALID,0.726563,
2011-09-24, 03:28:04,VALID,917.106,VALID,0,VALID,97.3434,VALID,0,VALID,19.5858,VALID,163,VALID,0.968359,
2011-09-24, 03:29:04,VALID,917.134,VALID,0,VALID,97.3358,VALID,0,VALID,19.5663,VALID,163,VALID,0.649609,
2011-09-24, 03:30:04,VALID,917.142,VALID,0,VALID,97.3053,VALID,0,VALID,19.5858,VALID,163,VALID,0.692969,
2011-09-24, 03:31:04,VALID,917.135,VALID,0,VALID,97.29,VALID,0,VALID,19.5648,VALID,163,VALID,0.864844,
2011-09-24, 03:32:04,VALID,917.131,VALID,0,VALID,97.2367,VALID,0,VALID,19.6053,VALID,163,VALID,0.894141,
2011-09-24, 03:33:04,VALID,917.129,VALID,0,VALID,97.1909,VALID,0,VALID,19.6668,VALID,163,VALID,0.751562,
2011-09-24, 03:34:04,VALID,917.145,VALID,0,VALID,97.1681,VALID,0,VALID,19.6638,VALID,163,VALID,0.392188,
2011-09-24, 03:35:04,VALID,917.155,VALID,0,VALID,97.1452,VALID,0,VALID,19.7058,VALID,158,VALID,0.253516,
2011-09-24, 03:36:04,VALID,917.142,VALID,0,VALID,97.0842,VALID,0,VALID,19.6833,VALID,158,VALID,0.614844,
2011-09-24, 03:37:04,VALID,917.155,VALID,0,VALID,97.0308,VALID,0,VALID,19.7043,VALID,158,VALID,0.216797,
2011-09-24, 03:38:04,VALID,917.19,VALID,0,VALID,96.9317,VALID,0,VALID,19.6638,VALID,139,VALID,0.905078,
2011-09-24, 03:39:04,VALID,917.181,VALID,0,VALID,96.8784,VALID,0,VALID,19.6203,VALID,139,VALID,0.444531,
2011-09-24, 03:40:04,VALID,917.2,VALID,0,VALID,96.8326,VALID,0,VALID,19.7043,VALID,139,VALID,0.357812,
2011-09-24, 03:41:04,VALID,917.177,VALID,0,VALID,96.7945,VALID,0,VALID,19.7448,VALID,140,VALID,0.582422,
2011-09-24, 03:42:04,VALID,917.204,VALID,0,VALID,96.764,VALID,0,VALID,19.6623,VALID,139,VALID,0.365625,
2011-09-24, 03:43:04,VALID,917.193,VALID,0,VALID,96.7107,VALID,0,VALID,19.6818,VALID,139,VALID,0.340234,
2011-09-24, 03:44:04,VALID,917.208,VALID,0,VALID,96.6725,VALID,0,VALID,19.7028,VALID,139,VALID,0.526953,